Location: Unspecified
(0.0000°N, 0.0000°E)
Time: 01:41:46
(UTC+00:00)

ARGOS - Pass Details

Date: 09 July 2022
Orbit: 819 x 835 km, 98.4° (Epoch: 14 August)

Event Time Altitude Azimuth Distance (km) Brightness Sun altitude
Rises 05:24:39 0° 39° (NE) 3,352 7.5 -9.4°
Reaches altitude 10° 05:27:33 10° 55° (NE) 2,420 7.1 -8.7°
Maximum altitude 05:31:30 21° 103° (ESE) 1,763 5.7 -7.8°
Drops below altitude 10° 05:35:27 10° 151° (SSE) 2,419 5.7 -6.9°
Sets 05:38:20 0° 166° (SSE) 3,352 6.2 -6.2°
